{"data":{"norad_id":58755,"epoch":"2026-09-22T23:11:19.504608Z","epoch_age_seconds":36945,"freshness":"FRESH","line1":"1 58755U 23185S   26265.96619797  .00002037  00000+0  11959-3 0  9993","line2":"2 58755  97.5169 332.0470 0011431 334.9012  25.1662 15.12816275148654","mean_motion":15.12816275,"eccentricity":0.0011431,"inclination_deg":97.5169,"raan_deg":332.047,"arg_perigee_deg":334.9012,"mean_anomaly_deg":25.1662,"bstar":0.00011959,"rev_number":14865,"period_min":95.186707321747,"perigee_km":519.7221693712,"apogee_km":535.51010219022,"semimajor_km":6905.7531357807,"source":"CELESTRAK","updated_at":"2026-09-23T09:00:18.960777Z"}}